Weather History for Paganella, Italy

Change the Weather History Date:

Thursday, January 17, 2013

  Actual Average Record
Temperature  
Mean Temperature 30 °F -  
Max Temperature 54 °F 28 °F 54 °F (2013)
Min Temperature 6 °F 19 °F 6 °F (2013)
Degree Days  
Heating Degree Days 35    
Moisture  
Dew Point 5 °F    
Average Humidity 83    
Maximum Humidity 92    
Minimum Humidity 69    
Precipitation  
Precipitation 0.00 in 0.04 in - ()
Sea Level Pressure  
Sea Level Pressure 29.22 in    
Wind  
Wind Speed 29 mph ()    
Max Wind Speed 37 mph    
Max Gust Speed 50 mph    
Visibility 7.2 miles    
Events Snow    
Averages and records for this station are not official NWS values.
T = Trace of Precipitation, MM = Missing Value Source: Averaged Metar Reports

Daily Weather History Graph

Daily Weather History Graph

Search for Another Location

Airport:

Trip Planner

Search our weather history database for the weather conditions in past years. The results will help you decide how hot, cold, wet, or windy it might be!

Date:

Astronomy

Jan. 17, 2013 Rise Set
Actual Time 7:52 AM CET 4:59 PM CET
Civil Twilight 7:19 AM CET 5:32 PM CET
Nautical Twilight 6:42 AM CET 6:09 PM CET
Astronomical Twilight 6:06 AM CET 6:45 PM CET
Moon 10:27 AM CET No Moon Set
Length of Visible Light 10h 13m
Length of Day
9h 06m
Waxing Crescent, 35% of the Moon is Illuminated
Jan 17
Waxing Crescent
Jan 19
First Quarter
Jan 27
Full
Feb 3
Last Quarter
Feb 10
New

Hourly Weather History & Observations

Time (CET) Temp. Windchill Dew Point Humidity Pressure Visibility Wind Dir Wind Speed Gust Speed Precip Events Conditions
12:55 AM 8.6 °F -15.1 °F 5.0 °F 85% 29.12 in 6.2 mi North 33.4 mph 48.3 mph N/A Snow Light Low Drifting Snow
1:00 AM 9 °F - 6 °F 80%  in 7 mi North 33.4 mph - - Snow Low Drifting Snow
1:55 AM 8.6 °F -14.8 °F 5.0 °F 85% 29.12 in 6.2 mi North 32.2 mph - N/A Snow Light Low Drifting Snow
2:55 AM 8.6 °F -15.1 °F 5.0 °F 85% 29.15 in 6.2 mi North 33.4 mph 44.9 mph N/A Snow Light Low Drifting Snow
3:55 AM 8.6 °F -14.8 °F 5.0 °F 85% 29.15 in 6.2 mi North 32.2 mph - N/A Snow Light Low Drifting Snow
4:00 AM 8 °F - 6 °F 85%  in 7 mi North 32.2 mph - - Snow Low Drifting Snow
4:55 AM 8.6 °F -16.0 °F 5.0 °F 85% 29.15 in 6.2 mi North 36.8 mph 48.3 mph N/A Snow Light Low Drifting Snow
5:55 AM 8.6 °F -15.4 °F 5.0 °F 85% 29.15 in 6.2 mi North 34.5 mph 47.2 mph N/A Snow Light Low Drifting Snow
6:55 AM 8.6 °F -14.5 °F 5.0 °F 85% 29.18 in 6.2 mi North 31.1 mph - N/A   Overcast
7:00 AM 8 °F - 5 °F 82%  in 9 mi North 31.1 mph - - Snow Low Drifting Snow
7:55 AM 8.6 °F -13.8 °F 5.0 °F 85% 29.18 in 6.2 mi North 28.8 mph 40.3 mph N/A Snow Blowing Snow
8:55 AM 8.6 °F -14.5 °F 5.0 °F 85% 29.21 in 6.2 mi North 31.1 mph 43.7 mph N/A Snow Blowing Snow
9:55 AM 8.6 °F -13.8 °F 5.0 °F 85% 29.24 in 6.2 mi North 28.8 mph 41.4 mph N/A Snow Blowing Snow
10:00 AM 8 °F - 5 °F 80%  in 9 mi North 28.8 mph - - Snow Blowing Snow
10:55 AM 8.6 °F -14.1 °F 5.0 °F 85% 29.24 in 6.2 mi North 29.9 mph - N/A Snow Blowing Snow
11:55 AM 8.6 °F -14.5 °F 5.0 °F 85% 29.24 in 6.2 mi North 31.1 mph 42.6 mph N/A Snow Blowing Snow
12:55 PM 10.4 °F -11.7 °F 6.8 °F 85% 29.24 in 6.2 mi North 29.9 mph 44.9 mph N/A Snow Blowing Snow
1:00 PM 10 °F - 7 °F 81%  in 9 mi North 29.9 mph - - Snow Blowing Snow
1:55 PM 10.4 °F -12.7 °F 6.8 °F 85% 29.24 in 6.2 mi North 33.4 mph 49.5 mph N/A   Scattered Clouds
2:55 PM 8.6 °F -14.1 °F 6.8 °F 92% 29.24 in 6.2 mi North 29.9 mph 41.4 mph N/A Snow Blowing Snow
3:55 PM 8.6 °F -13.4 °F 6.8 °F 92% 29.24 in 6.2 mi North 27.6 mph 39.1 mph N/A Snow Blowing Snow
4:00 PM 9 °F - 6 °F 83%  in 16 mi North 27.6 mph - - Snow Blowing Snow
4:55 PM 8.6 °F -14.1 °F 5.0 °F 85% 29.24 in 6.2 mi North 29.9 mph 41.4 mph N/A Snow Blowing Snow
5:55 PM 8.6 °F -14.5 °F 5.0 °F 85% 29.24 in 6.2 mi North 31.1 mph 44.9 mph N/A Snow Blowing Snow
6:55 PM 6.8 °F -17.9 °F 3.2 °F 85% 29.24 in 6.2 mi North 34.5 mph 49.5 mph N/A Snow Blowing Snow
7:00 PM 8 °F - 3 °F 69%  in 12 mi North 34.5 mph - - Snow Blowing Snow
7:55 PM 6.8 °F -17.9 °F 1.4 °F 79% 29.27 in 6.2 mi North 34.5 mph 46.0 mph N/A Snow Blowing Snow
8:55 PM 6.8 °F -17.9 °F 3.2 °F 85% 29.27 in 6.2 mi North 34.5 mph - N/A Snow Light Low Drifting Snow
9:55 PM 6.8 °F -17.3 °F 1.4 °F 79% 29.27 in 6.2 mi North 32.2 mph - N/A Snow Light Low Drifting Snow
10:00 PM 7 °F - 2 °F 69%  in 12 mi North 32.2 mph - - Snow Low Drifting Snow
10:55 PM 6.8 °F -16.9 °F 1.4 °F 79% 29.27 in 6.2 mi North 31.1 mph - N/A Snow Light Low Drifting Snow
11:55 PM 6.8 °F -15.9 °F 1.4 °F 79% 29.30 in 6.2 mi North 27.6 mph - N/A   Scattered Clouds